Location: Marsån
(66.4167°N, 22.2833°E)
Time: 11:35:50
(UTC+00:00)

Cosmos 1943 - Pass Details

Date: 24 February 2024
Orbit: 831 x 850 km, 71.0° (Epoch: 15 April)

Event Time Altitude Azimuth Distance (km) Brightness Sun altitude
Rises 18:11:08 0° 268° (W) 3,410 7.8 -17.3°
Reaches altitude 10° 18:13:38 10° 273° (W) 2,478 6.8 -17.5°
Maximum altitude 18:19:15 56° 352° (N) 1,010 3.7 -18.0°
Enters shadow 18:23:04 21° 64° (ENE) 1,851 4.6 -18.4°
